NSZ830 EDDC-ESSA

Flight info

Callsign NSZ830
Flight time 1h 39m
Altitude 34000
Route ABKIS4W/22 ABKIS L132 EKPEK DCT BODLA/N0455F350 DCT DEMUR DCT GORPI DCT ARMOD Z228 NILUG
Aircraft B738/M-SDE2E3FGHIRWXY/LB1

Departure

Time 2026-05-06 11:32
Airport Dresden Airport (EDDC)

Arrival

Time 2026-05-06 13:11
Airport Stockholm-Arlanda Airport (ESSA)
Time Latitude Longitude Altitude Speed Heading
2026-05-06 11:32 51.43321 13.53253 18899 ft 426 kts 13°
2026-05-06 11:32 51.46188 13.54560 19416 ft 429 kts 13°
2026-05-06 11:33 51.49031 13.55859 19912 ft 432 kts 13°
2026-05-06 11:33 51.51943 13.57191 20410 ft 435 kts 13°
2026-05-06 11:33 51.54863 13.58528 20880 ft 439 kts 13°
2026-05-06 11:33 51.57811 13.59880 21345 ft 442 kts 13°
2026-05-06 11:34 51.60777 13.61242 21819 ft 445 kts 13°
2026-05-06 11:34 51.63770 13.62619 22277 ft 448 kts 13°
2026-05-06 11:34 51.66786 13.64008 22724 ft 451 kts 13°
2026-05-06 11:34 51.69811 13.65403 23166 ft 454 kts 13°
2026-05-06 11:35 51.72867 13.66814 23572 ft 457 kts 14°
2026-05-06 11:35 51.75944 13.68237 23851 ft 463 kts 13°
2026-05-06 11:35 51.79051 13.69676 24190 ft 466 kts 13°
2026-05-06 11:35 51.82128 13.71104 24564 ft 467 kts 13°
2026-05-06 11:36 51.85262 13.72560 24940 ft 469 kts 13°
2026-05-06 11:36 51.88409 13.74024 25279 ft 472 kts 13°
2026-05-06 11:36 51.91586 13.75504 25599 ft 474 kts 13°
2026-05-06 11:36 51.94765 13.76987 25935 ft 477 kts 13°
2026-05-06 11:37 51.97959 13.78480 26354 ft 477 kts 13°
2026-05-06 11:37 52.01142 13.79970 26793 ft 477 kts 13°
2026-05-06 11:37 52.04336 13.81467 27095 ft 479 kts 13°
2026-05-06 11:37 52.07556 13.82978 27359 ft 483 kts 13°
2026-05-06 11:38 52.10755 13.84481 27646 ft 485 kts 13°
2026-05-06 11:38 52.13995 13.86006 27962 ft 486 kts 13°
2026-05-06 11:38 52.17254 13.87543 28270 ft 488 kts 13°
2026-05-06 11:38 52.20517 13.89083 28722 ft 485 kts 15°
2026-05-06 11:39 52.23735 13.90607 29435 ft 478 kts 15°
2026-05-06 11:39 52.26935 13.92124 29839 ft 478 kts 15°
2026-05-06 11:39 52.30134 13.93641 30065 ft 480 kts 15°
2026-05-06 11:39 52.33345 13.95166 30245 ft 483 kts 15°
2026-05-06 11:40 52.36584 13.96706 30429 ft 485 kts 15°
2026-05-06 11:40 52.39832 13.98253 30664 ft 486 kts 15°
2026-05-06 11:40 52.43080 13.99803 30995 ft 484 kts 15°
2026-05-06 11:40 52.46285 14.01336 31661 ft 475 kts 15°
2026-05-06 11:41 52.49463 14.02857 31865 ft 478 kts 15°
2026-05-06 11:41 52.55913 14.05951 32068 ft 485 kts 15°
2026-05-06 11:41 52.59155 14.07510 32361 ft 485 kts 15°
2026-05-06 11:42 52.62392 14.09069 32631 ft 485 kts 15°
2026-05-06 11:42 52.65592 14.10612 32829 ft 486 kts 15°
2026-05-06 11:42 52.68846 14.12184 33016 ft 488 kts 14°
2026-05-06 11:42 52.72106 14.13762 33249 ft 488 kts 14°
2026-05-06 11:43 52.75364 14.15340 33475 ft 489 kts 14°
2026-05-06 11:43 52.78631 14.16926 33667 ft 490 kts 14°
2026-05-06 11:43 52.81910 14.18520 33850 ft 491 kts 14°
2026-05-06 11:44 52.88460 14.21713 34313 ft 490 kts 14°
2026-05-06 11:44 52.91719 14.23306 34705 ft 484 kts 14°
2026-05-06 11:44 52.94885 14.24856 34990 ft 483 kts 14°
2026-05-06 11:44 52.98116 14.26438 35115 ft 485 kts 14°
2026-05-06 11:45 53.04618 14.29629 35377 ft 487 kts 14°
2026-05-06 11:45 53.07859 14.31225 35591 ft 486 kts 14°
2026-05-06 11:45 53.10016 14.32289 35747 ft 486 kts 14°
2026-05-06 11:46 53.13250 14.33885 35958 ft 485 kts 15°
2026-05-06 11:46 53.17539 14.36006 36167 ft 485 kts 15°
2026-05-06 11:46 53.20779 14.37611 36326 ft 485 kts 15°
2026-05-06 11:46 53.24015 14.39216 36506 ft 485 kts 15°
2026-05-06 11:47 53.26165 14.40284 36627 ft 485 kts 15°
2026-05-06 11:47 53.29370 14.42068 36764 ft 486 kts 20°
2026-05-06 11:47 53.35616 14.46553 36795 ft 490 kts 23°
2026-05-06 11:48 53.41796 14.51277 36802 ft 486 kts 23°
2026-05-06 11:48 53.47955 14.55902 36817 ft 483 kts 22°
2026-05-06 11:49 53.54088 14.60437 36813 ft 480 kts 22°
2026-05-06 11:49 53.60216 14.64959 36837 ft 481 kts 22°
2026-05-06 11:50 53.66341 14.69498 36831 ft 480 kts 22°
2026-05-06 11:50 53.72459 14.74051 36812 ft 481 kts 22°
2026-05-06 11:51 53.78552 14.78601 36813 ft 482 kts 22°
2026-05-06 11:51 53.84700 14.83207 36838 ft 483 kts 22°
2026-05-06 11:52 53.90863 14.87838 36826 ft 485 kts 23°
2026-05-06 11:52 53.95506 14.91339 36826 ft 486 kts 23°
2026-05-06 11:53 54.00390 14.95029 36829 ft 487 kts 22°
2026-05-06 11:53 54.05293 14.98696 36832 ft 488 kts 23°
2026-05-06 11:54 54.10329 15.02562 36833 ft 488 kts 23°
2026-05-06 11:54 54.14838 15.05993 36837 ft 488 kts 23°
2026-05-06 11:55 54.19516 15.09541 36838 ft 488 kts 23°
2026-05-06 11:55 54.22984 15.12176 36832 ft 488 kts 23°
2026-05-06 11:56 54.26697 15.15008 36841 ft 487 kts 23°
2026-05-06 11:56 54.30040 15.17558 36828 ft 487 kts 23°
2026-05-06 11:57 54.34829 15.21216 36840 ft 486 kts 24°
2026-05-06 11:57 54.40227 15.25358 36853 ft 486 kts 24°
2026-05-06 11:58 54.45074 15.29088 36849 ft 485 kts 24°
2026-05-06 11:58 54.51079 15.33728 36860 ft 485 kts 24°
2026-05-06 11:59 54.57228 15.38494 36860 ft 484 kts 24°
2026-05-06 11:59 54.63360 15.43260 36857 ft 483 kts 24°
2026-05-06 12:00 54.69486 15.48037 36875 ft 483 kts 24°
2026-05-06 12:00 54.75613 15.52832 36877 ft 483 kts 24°
2026-05-06 12:01 54.81719 15.57626 36880 ft 484 kts 24°
2026-05-06 12:01 54.87845 15.62452 36869 ft 484 kts 24°
2026-05-06 12:02 54.94016 15.67142 36878 ft 483 kts 20°
2026-05-06 12:02 55.00358 15.71059 36888 ft 483 kts 18°
2026-05-06 12:03 55.06697 15.74771 36888 ft 484 kts 18°
2026-05-06 12:03 55.13064 15.78591 36893 ft 484 kts 19°
2026-05-06 12:04 55.19420 15.82494 36896 ft 484 kts 19°
2026-05-06 12:04 55.25775 15.86435 36895 ft 484 kts 19°
2026-05-06 12:05 55.32130 15.90390 36897 ft 485 kts 19°
2026-05-06 12:05 55.38495 15.94362 36905 ft 486 kts 19°
2026-05-06 12:06 55.44871 15.98352 36906 ft 486 kts 19°
2026-05-06 12:06 55.51241 16.02351 36914 ft 486 kts 19°
2026-05-06 12:07 55.57625 16.06373 36914 ft 487 kts 19°
2026-05-06 12:07 55.64013 16.10411 36916 ft 487 kts 19°
2026-05-06 12:08 55.70397 16.14462 36918 ft 487 kts 19°
2026-05-06 12:08 55.76781 16.18526 36918 ft 488 kts 19°
2026-05-06 12:09 55.83136 16.22586 36924 ft 488 kts 19°
2026-05-06 12:09 55.89532 16.26686 36931 ft 488 kts 19°
2026-05-06 12:10 55.95921 16.30796 36925 ft 488 kts 19°
2026-05-06 12:10 56.02313 16.34923 36934 ft 488 kts 19°
2026-05-06 12:11 56.08706 16.39065 36936 ft 489 kts 19°
2026-05-06 12:11 56.15102 16.43224 36940 ft 489 kts 19°
2026-05-06 12:12 56.21504 16.47400 36943 ft 489 kts 19°
2026-05-06 12:12 56.27867 16.51567 36955 ft 489 kts 18°
2026-05-06 12:13 56.34267 16.55773 36946 ft 490 kts 18°
2026-05-06 12:13 56.40671 16.59996 36956 ft 490 kts 18°
2026-05-06 12:14 56.47081 16.64239 36956 ft 490 kts 18°
2026-05-06 12:14 56.53487 16.68495 36973 ft 490 kts 18°
2026-05-06 12:15 56.59897 16.72768 36965 ft 491 kts 18°
2026-05-06 12:15 56.66318 16.77064 36967 ft 491 kts 18°
2026-05-06 12:16 56.72733 16.81372 36967 ft 491 kts 18°
2026-05-06 12:16 56.79146 16.85694 36997 ft 492 kts 18°
2026-05-06 12:17 56.85564 16.90036 36978 ft 492 kts 18°
2026-05-06 12:17 56.91956 16.94375 36976 ft 493 kts 18°
2026-05-06 12:18 56.98388 16.98758 36976 ft 493 kts 18°
2026-05-06 12:18 57.04826 17.03162 36997 ft 494 kts 18°
2026-05-06 12:19 57.11267 17.07583 36990 ft 494 kts 18°
2026-05-06 12:19 57.17721 17.12031 36983 ft 495 kts 18°
2026-05-06 12:20 57.23933 17.16327 36985 ft 495 kts 18°
2026-05-06 12:20 57.28008 17.19172 36985 ft 495 kts 18°
2026-05-06 12:21 57.32374 17.22204 36997 ft 496 kts 17°
2026-05-06 12:21 57.36180 17.24847 36987 ft 496 kts 17°
2026-05-06 12:22 57.40193 17.27646 36989 ft 496 kts 17°
2026-05-06 12:22 57.43692 17.30096 36989 ft 496 kts 17°
2026-05-06 12:23 57.47927 17.33076 36990 ft 497 kts 17°
2026-05-06 12:23 57.52669 17.35819 36988 ft 492 kts
2026-05-06 12:24 57.57096 17.37613 37005 ft 491 kts
2026-05-06 12:24 57.60362 17.38845 36985 ft 492 kts
2026-05-06 12:25 57.64239 17.40320 36994 ft 491 kts
2026-05-06 12:25 57.68046 17.41790 36958 ft 480 kts
2026-05-06 12:26 57.72348 17.43492 36895 ft 466 kts
2026-05-06 12:26 57.76460 17.45127 36912 ft 457 kts
2026-05-06 12:27 57.81533 17.47140 37009 ft 458 kts
2026-05-06 12:27 57.87821 17.49645 37012 ft 466 kts
2026-05-06 12:28 57.93680 17.52002 36992 ft 471 kts
2026-05-06 12:28 57.99987 17.54560 37012 ft 474 kts
2026-05-06 12:29 58.05824 17.56940 36986 ft 470 kts
2026-05-06 12:29 58.11844 17.59406 37016 ft 463 kts
2026-05-06 12:30 58.18141 17.61981 37016 ft 463 kts
2026-05-06 12:30 58.24454 17.64572 37017 ft 464 kts
2026-05-06 12:31 58.30769 17.67175 37011 ft 465 kts
2026-05-06 12:31 58.37095 17.69794 37011 ft 465 kts
2026-05-06 12:32 58.43445 17.72433 37015 ft 467 kts
2026-05-06 12:32 58.49795 17.75082 37019 ft 468 kts
2026-05-06 12:33 58.56071 17.77718 36628 ft 455 kts
2026-05-06 12:33 58.59122 17.79001 35821 ft 456 kts
2026-05-06 12:33 58.62266 17.80312 34491 ft 472 kts
2026-05-06 12:34 58.65552 17.81679 32912 ft 492 kts
2026-05-06 12:34 58.68935 17.83101 31518 ft 503 kts
2026-05-06 12:34 58.72376 17.84564 30343 ft 508 kts
2026-05-06 12:34 58.75822 17.86039 29401 ft 504 kts
2026-05-06 12:35 58.76561 17.86355 29247 ft 502 kts
2026-05-06 12:53 58.78495 17.87184 28860 ft 496 kts
2026-05-06 12:53 58.81827 17.88691 28209 ft 487 kts 11°
2026-05-06 12:53 58.84980 17.91100 27476 ft 487 kts 21°
2026-05-06 12:54 58.87987 17.94022 26753 ft 481 kts 23°
2026-05-06 12:54 58.90931 17.97017 26025 ft 474 kts 23°
2026-05-06 12:54 58.93842 17.99952 25340 ft 468 kts 21°
2026-05-06 12:54 58.96725 18.02781 24624 ft 462 kts 20°
2026-05-06 12:55 58.99588 18.05526 23989 ft 455 kts 20°
2026-05-06 12:55 59.02402 18.08195 23328 ft 447 kts 19°
2026-05-06 12:55 59.05176 18.10825 22599 ft 440 kts 20°
2026-05-06 12:55 59.07877 18.13399 21897 ft 433 kts 20°
2026-05-06 12:56 59.13137 18.15824 20556 ft 400 kts 355°
2026-05-06 12:56 59.15922 18.16062 19876 ft 395 kts 356°
2026-05-06 12:56 59.18649 18.16318 19185 ft 391 kts 356°
2026-05-06 12:57 59.21354 18.16598 18543 ft 386 kts 356°
2026-05-06 12:57 59.24029 18.16893 17844 ft 382 kts 357°
2026-05-06 12:57 59.26625 18.17191 17166 ft 375 kts 358°
2026-05-06 12:57 59.29211 18.17494 16571 ft 368 kts 358°
2026-05-06 12:58 59.31720 18.17794 16253 ft 353 kts 358°
2026-05-06 12:58 59.34112 18.18083 16099 ft 335 kts 356°
2026-05-06 12:58 59.36389 18.18014 15797 ft 322 kts 356°
2026-05-06 12:58 59.38591 18.18542 15534 ft 315 kts
2026-05-06 12:59 59.40712 18.19346 15242 ft 307 kts
2026-05-06 12:59 59.42789 18.20181 14862 ft 302 kts
2026-05-06 12:59 59.44837 18.21009 14430 ft 299 kts
2026-05-06 12:59 59.46862 18.21824 14023 ft 296 kts
2026-05-06 13:00 59.48864 18.22633 13645 ft 291 kts
2026-05-06 13:00 59.50829 18.23460 13205 ft 287 kts
2026-05-06 13:00 59.52786 18.24267 12709 ft 285 kts
2026-05-06 13:00 59.54733 18.24869 12218 ft 282 kts
2026-05-06 13:01 59.56671 18.25388 11750 ft 280 kts
2026-05-06 13:01 59.58574 18.25870 11296 ft 278 kts
2026-05-06 13:01 59.60486 18.26333 10846 ft 276 kts
2026-05-06 13:01 59.62383 18.26771 10404 ft 274 kts
2026-05-06 13:02 59.64273 18.27184 9966 ft 272 kts
2026-05-06 13:02 59.66150 18.27569 9507 ft 270 kts
2026-05-06 13:02 59.68012 18.27934 9047 ft 268 kts
2026-05-06 13:02 59.69869 18.28278 8581 ft 266 kts
2026-05-06 13:03 59.71687 18.28597 8140 ft 265 kts
2026-05-06 13:03 59.73517 18.28898 7690 ft 263 kts
2026-05-06 13:03 59.75339 18.29181 7251 ft 262 kts
2026-05-06 13:03 59.77138 18.29447 7003 ft 253 kts
2026-05-06 13:04 59.78832 18.29716 6977 ft 236 kts
2026-05-06 13:04 59.80445 18.29979 6714 ft 232 kts
2026-05-06 13:04 59.82052 18.30146 6323 ft 230 kts 351°
2026-05-06 13:04 59.83505 18.29026 5892 ft 223 kts 317°
2026-05-06 13:05 59.84366 18.26563 5509 ft 217 kts 287°
2026-05-06 13:05 59.84756 18.23666 5099 ft 217 kts 282°
2026-05-06 13:05 59.85115 18.20751 4759 ft 216 kts 282°
2026-05-06 13:05 59.85466 18.17854 4360 ft 216 kts 282°
2026-05-06 13:06 59.85628 18.14917 3982 ft 213 kts 258°
2026-05-06 13:06 59.84988 18.12302 3581 ft 213 kts 227°
2026-05-06 13:06 59.83979 18.10283 3512 ft 200 kts 223°
2026-05-06 13:06 59.83001 18.08461 3378 ft 189 kts 223°
2026-05-06 13:07 59.82080 18.06742 3203 ft 180 kts 223°
2026-05-06 13:07 59.81176 18.05014 2810 ft 179 kts 227°
2026-05-06 13:07 59.80418 18.03109 2760 ft 169 kts 232°
2026-05-06 13:07 59.79682 18.01273 2598 ft 183 kts 229°
2026-05-06 13:08 59.78724 17.99592 2345 ft 179 kts 210°
2026-05-06 13:08 59.77527 17.99219 2096 ft 177 kts 174°
2026-05-06 13:08 59.76344 17.99558 2042 ft 166 kts 174°
2026-05-06 13:08 59.75278 17.99613 2739 ft 132 kts 188°
2026-05-06 13:09 59.74405 17.99314 3411 ft 144 kts 197°
2026-05-06 13:09 59.73255 17.98803 3046 ft 185 kts 192°
2026-05-06 13:09 59.71972 17.98480 2463 ft 192 kts 188°
2026-05-06 13:09 59.70612 17.98080 1706 ft 196 kts 191°
2026-05-06 13:10 59.69303 17.97559 1105 ft 182 kts 192°
2026-05-06 13:10 59.68127 17.97088 739 ft 162 kts 187°
2026-05-06 13:10 59.67058 17.96780 624 ft 148 kts 190°
2026-05-06 13:10 59.66062 17.96355 470 ft 143 kts 194°
2026-05-06 13:11 59.65080 17.95956 190 ft 143 kts 192°
2026-05-06 13:11 59.64184 17.95623 111 ft 116 kts 192°
2026-05-06 13:11 59.63599 17.95422 118 ft 55 kts 190°
2026-05-06 13:11 59.63384 17.95265 118 ft 0 kts 214°
2026-05-06 13:12 59.63383 17.95264 118 ft 0 kts 214°
2026-05-06 13:12 59.63382 17.95262 118 ft 1 kts 214°
2026-05-06 13:12 59.63352 17.95219 119 ft 10 kts 216°
2026-05-06 13:13 59.63278 17.95101 119 ft 17 kts 222°
2026-05-06 13:13 59.63257 17.94928 122 ft 16 kts 315°
2026-05-06 13:13 59.63379 17.94939 119 ft 23 kts 11°
2026-05-06 13:13 59.63568 17.95008 114 ft 32 kts
2026-05-06 13:14 59.63749 17.95072 110 ft 25 kts 10°
2026-05-06 13:14 59.63927 17.95135 108 ft 28 kts 10°
2026-05-06 13:14 59.64095 17.95196 107 ft 25 kts 11°
2026-05-06 13:14 59.64276 17.95261 105 ft 25 kts
2026-05-06 13:15 59.64415 17.95314 104 ft 20 kts 11°
2026-05-06 13:15 59.64570 17.95373 104 ft 25 kts 10°
2026-05-06 13:15 59.64759 17.95438 105 ft 29 kts 10°
2026-05-06 13:15 59.64957 17.95510 110 ft 24 kts 10°
2026-05-06 13:16 59.65119 17.95477 116 ft 23 kts 344°
2026-05-06 13:16 59.65271 17.95395 123 ft 22 kts 345°
2026-05-06 13:16 59.65421 17.95316 125 ft 23 kts 345°
2026-05-06 13:16 59.65582 17.95231 127 ft 17 kts 345°
2026-05-06 13:17 59.65700 17.95168 127 ft 15 kts 345°
2026-05-06 13:17 59.65802 17.95102 121 ft 4 kts 316°
2026-05-06 13:17 59.65826 17.95025 119 ft 6 kts 279°
2026-05-06 13:17 59.65820 17.95019 120 ft 1 kts 200°
2026-05-06 13:18 59.65806 17.95046 120 ft 5 kts 132°
2026-05-06 13:18 59.65766 17.95063 120 ft 7 kts 204°
2026-05-06 13:18 59.65741 17.94948 123 ft 12 kts 256°
2026-05-06 13:18 59.65716 17.94741 120 ft 18 kts 256°
2026-05-06 13:19 59.65681 17.94472 123 ft 22 kts 255°
2026-05-06 13:19 59.65639 17.94146 120 ft 27 kts 255°
2026-05-06 13:19 59.65591 17.93770 113 ft 30 kts 256°
2026-05-06 13:19 59.65550 17.93439 111 ft 11 kts 259°
2026-05-06 13:20 59.65545 17.93397 109 ft 0 kts 257°
2026-05-06 13:20 59.65541 17.93366 109 ft 7 kts 257°
2026-05-06 13:20 59.65523 17.93214 111 ft 16 kts 256°
2026-05-06 13:20 59.65486 17.92958 110 ft 23 kts 250°
2026-05-06 13:21 59.65432 17.92706 110 ft 15 kts 228°
2026-05-06 13:21 59.65347 17.92722 111 ft 16 kts 150°
2026-05-06 13:21 59.65241 17.92830 111 ft 10 kts 153°
2026-05-06 13:21 59.65201 17.92894 111 ft 2 kts 133°
2026-05-06 13:22 59.65184 17.92931 111 ft 2 kts 149°
2026-05-06 13:22 59.65155 17.92915 111 ft 0 kts 210°
2026-05-06 13:22 59.65142 17.92902 111 ft 0 kts 209°
2026-05-06 13:22 59.65135 17.92894 111 ft 1 kts 207°
2026-05-06 13:23 59.65132 17.92892 111 ft 0 kts 207°